Temperature
10 8 8 8 9 10 10 9 10 10 10 9 8 9 9 10 10 10 10 10 11 11 11 11 11 11 10 10 10 10 10 9 9 9 9 9 9 8 8 8 8 8 8 8
8 8 9 9 9 10 10 9 9 9 10 9 8 9 9 9 9 9 10 10 10 11 11 10 10 10 10 10 10 9 9 9 9 9 9 8 8 8 8 8 8 8 8 8
8 9 10 10 9 9 9 9 9 9 9 9 9 8 9 9 9 10 10 10 11 10 10 10 10 10 10 9 9 9 9 9 9 9 8 8 8 8 8 8 8 8 8 8
8 9 9 9 9 9 9 9 9 9 8 6 8 7 8 8 8 8 9 9 10 10 10 10 9 9 9 9 9 9 9 9 8 8 8 8 8 8 8 8 8 8 7 7
8 8 8 8 9 9 8 9 8 8 7 6 6 7 7 7 8 8 8 9 10 10 10 9 9 9 9 9 9 9 8 8 8 8 8 8 8 8 7 7 7 7 7 7
8 8 8 8 8 8 8 8 7 6 6 6 6 6 7 7 8 8 8 9 9 9 9 9 9 9 9 8 8 8 8 8 8 8 7 7 7 7 7 7 7 7 7 7
7 7 8 8 7 8 7 6 6 6 6 6 7 6 6 8 8 8 8 9 9 9 9 9 8 8 8 8 8 8 8 8 8 7 7 7 7 7 7 7 7 7 6 6
5 5 7 7 7 6 6 7 6 6 6 6 6 6 7 8 8 8 9 9 9 8 8 8 8 8 8 8 8 7 7 7 7 7 7 7 7 6 6 6 6 6 6 6
5 5 6 7 7 7 6 6 6 6 6 6 6 6 7 7 7 7 7 7 8 8 8 8 8 8 8 7 7 7 7 7 7 7 7 6 6 6 6 6 6 6 6 6
5 5 5 6 6 6 6 6 5 5 6 6 6 6 6 6 6 6 6 6 7 7 7 7 7 7 7 7 7 7 7 7 6 6 6 6 6 6 6 6 6 6 6 5
5 4 4 4 5 5 5 5 5 4 4 6 6 6 6 6 6 5 5 6 6 7 7 7 7 7 7 7 7 6 6 6 6 6 6 6 6 6 6 6 5 5 5 5
4 3 2 3 4 5 5 5 4 4 4 4 4 5 6 6 5 5 5 6 6 7 7 6 6 6 6 6 6 6 6 6 6 6 5 5 5 5 5 5 5 5 5 5
4 3 2 3 4 4 4 4 4 4 3 3 3 5 6 5 5 6 5 5 6 6 6 6 6 6 6 6 6 6 5 5 5 5 5 5 5 5 5 5 5 5 5 5
4 2 2 3 4 3 3 3 4 3 2 2 3 4 5 5 4 4 5 5 5 5 5 5 5 5 5 5 5 5 5 5 5 5 5 5 5 4 5 5 5 4 4 4
2 1 2 2 3 3 3 3 3 3 3 3 3 4 4 4 4 4 4 4 4 4 4 4 4 4 4 4 4 5 5 5 5 5 5 4 4 4 4 4 4 4 4 4
1 1 1 1 3 2 2 3 3 3 3 3 3 3 4 4 4 3 3 3 3 4 4 4 4 4 4 4 4 4 4 4 4 4 4 4 4 4 4 4 4 4 4 4
0 0 0 0 2 2 1 2 3 2 2 3 3 3 3 2 2 3 3 3 3 3 3 3 3 3 3 3 3 3 3 4 4 4 4 4 4 4 4 4 4 3 3 3
-0 -0 -0 -0 0 0 2 2 3 2 2 2 2 2 2 2 2 3 3 3 3 2 2 3 3 3 3 3 3 3 3 3 3 3 3 3 3 3 3 3 3 3 3 3
-0 -0 -1 -1 -0 0 1 1 1 1 1 1 1 1 1 2 1 2 3 2 2 2 2 2 2 2 3 3 2 2 3 3 3 3 3 3 3 3 3 3 3 3 2 2
-1 -1 -1 -1 -0 0 1 1 2 1 0 1 1 0 0 0 -0 1 2 1 1 1 1 2 2 2 2 2 2 2 2 2 2 3 3 3 3 3 3 3 2 2 2 2
-1 -2 -2 -1 -1 -0 0 1 1 0 0 1 1 0 -0 -0 0 1 1 0 1 1 1 1 1 1 1 2 1 2 2 2 2 2 2 2 2 2 2 2 2 2 2 2
-2 -2 -2 -2 -1 -0 0 -0 -0 -0 0 0 -0 -0 -1 -0 -0 -0 -0 -0 0 0 0 0 0 1 1 1 1 1 1 2 2 2 2 2 2 2 2 2 2 1 1 1
-2 -1 -2 -2 -1 -0 0 -0 0 0 -0 -0 -1 -1 -1 -1 -1 -1 -1 -1 -1 -1 -1 -0 -0 -0 0 0 0 1 1 1 1 1 1 1 1 1 1 1 1 1 1 0
-3 -2 -2 -2 -2 -1 -1 -1 -1 -1 -1 -1 -1 -2 -2 -2 -2 -2 -2 -2 -2 -1 -1 -1 -1 -1 -1 -0 -0 -0 0 0 1 1 1 1 1 1 1 0 0 0 -0 -0
-3 -3 -3 -3 -3 -2 -2 -2 -2 -2 -2 -2 -2 -2 -2 -3 -3 -3 -2 -2 -2 -2 -2 -2 -2 -2 -1 -1 -1 -1 -0 -0 -0 0 0 0 0 -0 -0 -0 -0 -1 -1 -1
-4 -4 -4 -3 -3 -3 -3 -3 -3 -3 -3 -3 -3 -3 -3 -3 -3 -3 -3 -3 -3 -3 -2 -2 -2 -2 -2 -2 -1 -1 -1 -1 -1 -0 -0 -0 -1 -1 -1 -1 -1 -1 -1 -1
Wind_Speed
2 3 3 7 7 5 4 4 6 7 4 5 10 14 13 9 8 9 8 8 8 9 7 6 6 6 5 4 4 4 4 3 3 2 2 2 2 1 1 1 1 2 2 3
4 3 7 4 4 4 4 4 5 5 3 4 8 13 11 9 8 8 9 9 9 6 4 5 5 5 5 5 4 4 4 4 4 3 3 2 2 1 1 1 1 2 2 2
5 5 3 2 2 3 5 6 5 5 5 4 5 9 6 5 5 6 7 7 8 9 8 7 6 6 5 5 4 4 3 4 4 3 2 2 1 1 1 0 1 1 2 2
3 4 2 2 3 3 6 4 4 3 2 5 1 6 8 5 5 6 7 6 7 7 7 7 6 6 5 5 4 4 3 3 3 4 4 4 3 2 2 2 1 1 1 2
4 2 1 3 5 4 5 3 2 3 3 4 3 5 8 4 5 8 7 7 6 6 7 7 7 7 6 5 4 4 3 3 3 4 5 5 3 2 1 1 1 1 1 1
4 3 3 4 3 2 1 2 3 3 2 4 6 7 7 5 6 5 5 6 6 6 6 5 4 4 3 3 3 3 3 3 3 3 4 6 5 3 2 2 2 1 1 1
4 4 2 0 2 2 2 3 2 3 2 7 4 5 8 8 6 5 5 6 6 6 6 5 4 4 4 4 3 3 3 3 2 3 3 5 6 5 5 4 3 3 2 2
2 6 3 1 2 3 3 5 5 5 5 5 3 6 6 6 3 0 2 2 3 4 5 5 5 5 5 5 4 4 4 3 3 3 3 3 4 4 4 4 4 4 3 3
2 6 4 3 3 2 2 4 4 3 3 4 6 5 6 5 5 4 3 2 1 2 3 4 4 4 4 5 5 5 5 4 3 3 3 3 3 4 4 4 4 3 3 3
3 5 4 4 3 2 1 1 2 2 3 5 5 4 3 4 4 4 2 1 2 1 2 2 3 3 4 4 4 4 4 4 4 3 3 3 3 3 4 4 4 4 4 3
1 3 4 3 2 4 1 1 2 2 3 4 4 4 2 2 2 2 2 2 2 2 2 2 2 2 2 2 3 3 3 3 3 3 2 2 3 3 3 4 4 4 4 4
1 2 4 7 6 4 4 3 3 2 5 3 3 5 2 2 2 1 2 2 2 2 1 1 1 0 0 1 2 3 3 3 3 3 3 3 3 3 3 4 4 4 4 4
1 1 3 6 3 1 1 2 2 2 2 4 4 6 3 6 5 3 2 3 3 2 2 1 1 0 1 2 2 3 3 4 3 3 3 3 3 3 4 4 3 4 4 4
1 3 6 8 6 4 7 8 5 4 4 6 8 9 9 9 8 7 4 3 3 2 2 1 1 1 2 2 2 3 3 3 3 3 3 4 3 3 4 4 4 4 4 4
1 4 7 9 9 7 9 10 7 9 9 9 9 9 10 8 8 6 4 4 3 3 3 3 2 2 2 2 2 2 3 2 3 3 4 4 4 3 3 3 3 4 4 4
0 4 4 7 8 8 10 10 9 10 9 9 10 10 8 7 5 5 5 3 3 4 4 4 4 3 3 3 3 3 3 3 2 3 4 4 3 3 3 3 3 3 3 3
3 3 3 6 6 6 8 8 8 6 5 5 9 9 7 7 7 6 5 4 4 5 5 5 5 5 4 4 4 3 4 3 3 3 4 3 3 3 3 3 3 3 3 3
6 4 3 4 2 7 6 1 2 4 3 3 3 6 7 7 8 6 4 3 5 6 6 6 6 6 5 4 3 3 2 2 3 4 4 4 4 3 3 3 3 3 3 3
9 7 4 3 5 8 6 3 2 4 5 3 5 8 8 8 6 4 3 4 5 6 6 6 6 5 4 4 3 2 2 2 3 4 4 4 4 4 3 4 3 3 3 3
3 6 5 4 5 6 5 5 5 1 4 5 5 7 8 7 6 7 7 8 8 7 6 5 5 4 4 4 3 2 3 3 4 4 4 4 4 5 5 4 3 2 3 3
1 2 5 7 7 6 5 5 3 2 5 7 6 7 7 6 7 9 9 8 7 7 6 5 4 4 4 3 2 3 4 5 5 3 3 3 4 4 4 3 2 2 2 2
4 3 4 4 6 7 3 2 1 4 5 6 7 7 7 8 8 9 8 8 8 7 6 5 4 5 5 3 3 4 5 4 3 2 3 3 3 3 3 3 3 3 3 3
5 6 4 6 7 5 2 3 5 4 6 7 7 8 7 8 9 10 9 8 7 7 7 5 4 5 5 3 3 5 5 2 2 2 3 3 3 3 3 4 4 3 3 3
4 3 3 5 7 7 7 5 6 6 7 8 8 8 8 8 9 10 9 8 7 7 6 5 5 5 5 4 4 4 3 2 2 3 3 3 3 3 3 2 3 3 4 3
5 3 4 7 7 7 6 6 7 8 8 8 8 8 8 8 10 9 9 8 7 7 6 5 5 6 6 5 4 3 2 2 3 3 3 2 2 3 2 2 2 3 3 4
3 4 5 7 7 6 10 9 9 9 9 9 9 10 9 8 10 10 9 8 7 7 6 5 5 6 5 4 4 3 2 2 3 3 2 2 2 2 2 2 1 1 0 1
Wind_Direction
62 83 201 215 210 221 219 232 257 259 243 215 244 261 267 252 239 238 235 226 219 220 215 191 176 166 159 162 166 172 178 185 172 164 171 180 199 205 194 176 171 171 182 173
43 251 241 235 235 243 248 256 268 289 276 241 266 272 267 246 230 226 223 222 219 213 194 183 172 166 164 165 170 178 188 185 186 180 179 181 183 203 201 179 186 195 179 176
204 246 258 228 248 249 253 235 244 264 312 302 299 296 274 263 237 238 228 220 209 196 188 182 176 176 171 177 184 187 195 194 189 172 149 125 93 59 50 195 218 260 187 175
241 261 279 261 253 219 258 247 235 248 287 278 250 287 286 271 272 247 236 219 208 195 185 182 178 178 184 194 188 187 193 191 190 170 166 170 175 195 221 217 216 249 206 180
261 246 244 245 253 225 235 269 255 253 228 281 243 232 282 294 271 256 238 224 209 190 180 181 183 188 191 189 183 185 180 182 184 180 177 177 185 199 195 188 193 209 230 198
259 259 234 230 277 237 210 9 2 31 96 260 228 200 274 249 242 260 237 216 201 185 179 178 180 176 182 182 177 177 176 187 183 180 182 181 186 187 178 189 196 207 222 230
307 296 284 63 6 351 69 80 5 329 282 248 221 205 252 259 251 228 217 210 196 177 169 168 172 178 186 185 187 188 185 197 195 179 185 191 193 193 195 199 199 201 215 230
294 287 263 267 224 214 221 169 184 221 236 274 259 226 255 290 306 210 168 161 161 172 178 182 189 189 193 196 194 194 198 204 196 187 196 200 198 199 207 208 202 204 214 223
232 271 313 306 295 178 196 221 200 180 248 261 262 270 304 351 15 35 65 84 162 187 195 200 200 194 195 196 198 198 200 203 197 195 196 200 206 206 211 214 207 206 208 210
188 268 287 318 341 321 213 196 112 172 220 249 271 266 278 316 324 351 5 305 286 265 230 220 213 212 203 198 200 196 196 203 200 196 196 201 209 210 206 203 206 206 205 202
177 238 295 327 237 247 271 247 206 207 224 216 255 264 235 251 291 275 268 268 264 271 249 241 240 235 213 195 196 199 200 196 196 201 206 204 213 215 206 206 209 204 200 197
264 166 261 264 265 238 209 203 155 205 253 235 240 264 301 322 329 320 304 318 309 302 287 270 258 274 238 231 230 220 210 203 206 206 208 214 218 215 208 212 213 200 196 199
325 136 315 322 323 1 276 254 248 259 228 219 223 259 331 2 355 348 343 335 332 350 346 340 352 279 255 256 253 240 224 217 210 201 202 213 219 218 217 215 208 202 198 197
10 201 206 230 252 260 273 278 263 228 232 246 238 266 304 323 324 326 326 321 331 346 351 345 309 276 271 270 264 251 244 227 213 205 203 211 221 224 219 213 207 205 198 194
76 242 245 258 268 264 265 270 256 237 234 238 253 261 282 295 297 295 301 314 330 338 344 330 301 290 289 291 291 273 252 233 219 210 212 219 225 224 213 204 205 200 193 197
333 253 273 276 269 270 274 269 258 252 247 245 261 271 283 304 318 317 309 312 318 317 316 314 310 298 286 275 275 277 262 241 219 217 223 224 215 208 205 203 196 194 192 191
232 220 269 272 288 302 268 246 231 237 235 228 248 268 305 320 314 295 285 289 285 295 301 300 296 281 273 267 256 259 257 244 223 225 226 217 207 203 203 200 190 194 195 190
204 205 228 271 295 249 246 247 225 235 250 239 271 303 304 293 295 286 273 278 295 300 297 295 295 285 274 268 267 262 251 236 229 228 226 219 209 208 202 195 201 203 197 197
199 192 210 231 249 268 284 294 263 235 265 290 292 308 318 321 319 303 297 305 295 288 285 286 287 280 271 267 266 265 258 240 235 233 227 217 206 203 198 200 204 204 199 206
181 186 200 223 240 251 270 305 305 190 260 310 309 307 317 336 317 297 317 316 309 308 300 295 294 289 272 267 256 250 254 242 240 238 231 217 204 198 203 204 202 202 198 208
134 206 217 230 244 260 285 320 23 163 275 317 315 307 304 288 276 290 304 307 305 306 301 301 300 294 279 266 245 251 252 247 245 239 229 215 206 203 201 192 190 181 178 179
202 210 220 220 234 253 323 17 173 259 294 307 307 303 295 296 301 303 303 305 310 312 310 310 307 302 296 264 240 252 255 255 245 224 215 214 208 201 193 177 176 171 164 167
213 208 211 216 236 275 293 259 278 290 293 295 297 299 297 300 300 302 300 300 302 305 307 307 303 303 302 289 252 249 260 250 225 214 214 212 207 198 189 185 180 174 173 180
268 259 235 258 266 280 289 289 296 297 292 296 297 296 293 292 294 296 295 295 297 299 302 305 305 300 297 295 283 261 256 225 204 209 207 194 188 188 182 189 185 183 187 190
256 261 257 264 281 300 294 299 304 309 308 307 307 301 294 294 294 292 291 290 293 297 298 299 295 288 288 295 291 282 262 213 202 202 194 186 183 177 174 181 200 201 207 205
245 245 253 265 278 282 289 299 307 309 310 310 310 309 304 296 292 292 289 288 289 290 293 296 295 289 289 292 289 285 264 215 195 193 184 184 187 179 170 163 111 36 160 185
Height
1508 1513 1515 1512 1511 1511 1511 1512 1511 1507 1503 1505 1504 1499 1493 1491 1492 1491 1490 1490 1491 1492 1494 1495 1497 1498 1499 1500 1501 1502 1502 1503 1503 1503 1503 1504 1504 1505 1505 1506 1506 1506 1506 1506
1513 1513 1509 1508 1508 1509 1509 1511 1510 1506 1503 1503 1502 1496 1489 1487 1486 1485 1485 1485 1486 1488 1490 1491 1493 1494 1496 1497 1498 1499 1500 1500 1500 1501 1501 1502 1502 1503 1503 1503 1504 1504 1504 1504
1511 1509 1506 1507 1508 1509 1508 1509 1508 1507 1504 1502 1502 1496 1488 1483 1481 1481 1481 1481 1482 1484 1485 1487 1489 1491 1492 1493 1495 1496 1497 1497 1498 1499 1499 1500 1500 1500 1501 1501 1501 1501 1502 1502
1509 1507 1506 1506 1507 1507 1508 1504 1504 1505 1509 1512 1506 1508 1488 1484 1481 1478 1477 1478 1478 1480 1482 1484 1486 1487 1489 1490 1492 1493 1494 1495 1495 1496 1497 1497 1497 1497 1497 1498 1498 1499 1499 1500
1509 1506 1506 1506 1505 1504 1504 1502 1503 1504 1507 1511 1508 1509 1493 1484 1481 1476 1474 1474 1475 1477 1479 1481 1483 1485 1486 1488 1489 1490 1491 1492 1493 1493 1494 1495 1495 1495 1496 1496 1496 1496 1497 1498
1507 1505 1505 1503 1502 1502 1502 1504 1504 1507 1510 1512 1505 1508 1496 1486 1477 1472 1471 1471 1473 1475 1477 1479 1481 1483 1484 1485 1486 1487 1488 1489 1490 1490 1491 1492 1492 1493 1493 1493 1493 1494 1494 1495
1509 1506 1503 1502 1504 1503 1503 1510 1515 1514 1514 1507 1499 1501 1492 1475 1471 1469 1469 1469 1471 1473 1475 1477 1479 1480 1481 1482 1483 1484 1485 1486 1487 1487 1488 1489 1490 1490 1490 1490 1491 1491 1492 1492
1516 1513 1504 1503 1504 1504 1504 1506 1513 1514 1512 1506 1497 1497 1484 1472 1469 1467 1468 1469 1471 1472 1474 1475 1476 1478 1478 1479 1480 1481 1482 1483 1484 1484 1485 1486 1486 1487 1488 1488 1488 1489 1489 1490
1517 1512 1505 1503 1501 1502 1503 1505 1503 1509 1507 1506 1498 1490 1479 1472 1470 1468 1468 1469 1470 1471 1473 1474 1474 1475 1476 1476 1477 1478 1479 1480 1480 1481 1482 1482 1483 1484 1484 1485 1485 1486 1486 1487
1514 1514 1507 1504 1502 1501 1502 1502 1507 1508 1505 1501 1493 1491 1485 1477 1473 1471 1470 1470 1471 1471 1471 1472 1472 1473 1473 1474 1475 1476 1476 1477 1477 1478 1479 1479 1480 1481 1481 1481 1482 1482 1483 1484
1512 1515 1511 1508 1505 1504 1504 1504 1504 1506 1505 1500 1497 1491 1478 1476 1473 1472 1471 1470 1470 1470 1470 1470 1470 1471 1471 1472 1472 1473 1473 1474 1474 1475 1476 1476 1477 1477 1477 1478 1478 1479 1479 1480
1511 1515 1516 1509 1502 1500 1501 1502 1505 1508 1505 1503 1498 1491 1474 1473 1471 1470 1470 1470 1469 1469 1469 1469 1469 1469 1469 1469 1469 1470 1470 1471 1471 1472 1472 1473 1473 1473 1474 1474 1475 1475 1476 1477
1511 1515 1517 1509 1506 1503 1502 1501 1502 1503 1505 1504 1501 1489 1474 1472 1471 1471 1470 1469 1469 1468 1467 1467 1467 1467 1467 1466 1466 1467 1467 1467 1468 1469 1469 1469 1469 1470 1470 1471 1471 1472 1473 1473
1509 1512 1515 1511 1504 1503 1502 1499 1498 1501 1504 1500 1493 1484 1476 1474 1473 1471 1470 1469 1468 1467 1466 1466 1465 1465 1465 1464 1464 1464 1464 1464 1465 1465 1465 1466 1466 1466 1467 1467 1468 1469 1469 1470
1509 1511 1508 1504 1501 1499 1497 1495 1494 1494 1493 1492 1485 1482 1477 1475 1473 1471 1469 1467 1466 1465 1465 1464 1463 1463 1462 1462 1461 1461 1461 1461 1461 1462 1462 1462 1463 1463 1464 1464 1465 1465 1466 1467
1509 1510 1507 1504 1498 1496 1494 1490 1489 1487 1485 1484 1481 1478 1474 1473 1471 1469 1467 1466 1465 1463 1463 1462 1461 1460 1459 1459 1458 1458 1458 1458 1458 1458 1458 1459 1459 1460 1460 1461 1461 1462 1462 1463
1510 1510 1509 1505 1498 1495 1493 1484 1482 1482 1479 1479 1479 1476 1472 1471 1469 1467 1465 1464 1463 1461 1460 1459 1458 1457 1456 1456 1455 1455 1454 1454 1454 1454 1454 1455 1455 1456 1456 1457 1458 1458 1459 1459
1507 1508 1509 1506 1501 1501 1483 1477 1476 1477 1477 1476 1475 1473 1471 1469 1466 1464 1462 1461 1460 1459 1457 1456 1455 1454 1453 1452 1452 1452 1451 1451 1450 1450 1450 1451 1451 1452 1453 1453 1454 1454 1455 1456
1499 1503 1507 1506 1501 1489 1480 1477 1477 1477 1476 1473 1472 1470 1468 1465 1462 1460 1460 1459 1458 1456 1455 1453 1452 1450 1449 1449 1448 1448 1447 1447 1447 1446 1446 1447 1448 1448 1448 1449 1450 1451 1451 1452
1495 1498 1503 1502 1497 1488 1480 1475 1471 1473 1475 1470 1469 1468 1466 1464 1465 1459 1457 1456 1454 1452 1451 1449 1448 1447 1446 1445 1444 1444 1443 1443 1442 1442 1443 1443 1444 1444 1444 1445 1446 1447 1448 1448
1498 1500 1500 1498 1494 1483 1477 1473 1471 1478 1476 1470 1468 1466 1465 1463 1462 1458 1454 1452 1450 1448 1446 1445 1444 1442 1442 1441 1440 1440 1439 1439 1439 1439 1439 1439 1440 1440 1441 1442 1443 1443 1444 1445
1495 1498 1497 1494 1492 1484 1474 1473 1476 1474 1470 1468 1465 1464 1462 1459 1456 1453 1450 1448 1446 1444 1442 1441 1440 1438 1438 1437 1436 1435 1435 1435 1435 1435 1435 1435 1436 1437 1437 1438 1439 1440 1440 1441
1490 1488 1487 1486 1482 1475 1473 1472 1471 1470 1468 1465 1462 1460 1458 1455 1452 1449 1446 1444 1442 1440 1438 1437 1436 1434 1434 1433 1432 1431 1431 1431 1431 1431 1431 1432 1432 1433 1434 1435 1435 1436 1437 1437
1486 1483 1483 1481 1475 1472 1471 1469 1468 1467 1464 1461 1459 1456 1454 1450 1447 1444 1442 1439 1437 1435 1434 1433 1431 1430 1429 1428 1428 1428 1427 1427 1427 1427 1427 1428 1428 1429 1430 1431 1432 1433 1433 1434
1484 1482 1480 1477 1473 1469 1466 1466 1464 1462 1459 1457 1454 1452 1449 1446 1443 1440 1437 1435 1433 1431 1430 1429 1427 1426 1425 1424 1424 1424 1423 1423 1423 1423 1423 1424 1425 1425 1427 1428 1429 1430 1431 1432
1480 1480 1479 1474 1471 1470 1466 1463 1461 1458 1455 1452 1449 1446 1444 1441 1438 1435 1432 1430 1428 1426 1425 1424 1423 1422 1421 1420 1420 1420 1419 1419 1419 1419 1419 1420 1421 1422 1423 1424 1426 1427 1428 1429